World > North America > United States > New York

Hourly Pine Lake, NY Regional Weather

Feedback E-mail the Weather

Latest News

Pine Lake, NY Weather Maps

°F °C°F °C
Pine Lake Weather Map
UTC Time: 5/27/2022, 23:12
Your Time:

Pine Lake, NY Regional Weather

Expires:202205280000;;671093
ASUS41 KALY 272310
RWRALY

NEW YORK STATE HOURLY WEATHER ROUNDUP
NATIONAL WEATHER SERVICE ALBANY NY
700 PM EDT FRI MAY 27 2022

NOTE: "FAIR" INDICATES FEW OR NO CLOUDS BELOW 12,000 FEET WITH NO
SIGNIFICANT WEATHER AND/OR NO OBSTRUCTIONS TO VISIBILITY.


NYZ032-033-038>043-046>054-057>066-NYZ062>081-082-084-280000-
EAST

  
CITY           SKY/WX    TMP DP  RH WIND       PRES   REMARKS
ALBANY         CLOUDY    75  66  73 SE13G20   29.71F                  
GLENS FALLS    LGT RAIN  73  65  75 S8        29.69F                  
POUGHKEEPSIE   LGT RAIN  70  66  87 SE3       29.75F                  
NEWBURGH       PTSUNNY   70  66  88 S7G16     29.77F                  
MONTGOMERY     MOSUNNY   69  65  86 S6        29.75F                  
WHITE PLAINS   CLOUDY    67  65  93 S12       29.80F FOG              
ISLIP          CLOUDY    65  65 100 S8        29.84F                  
NEW YORK CITY  LGT RAIN  69  65  86 SE9       29.79F                  
CENTRAL PARK   CLOUDY    68  66  93 CALM      29.81F                  
$$


SKY/WX - Weather  TMP - Temperature  DP - Dew Point  RH - Humidity
WIND - Wind Direction/Speed PRES - Barometric Pressure VSB - Visibility
WCI - Wind Chill Index E13G22 Wind - East Wind 13 mph/Gusts of 22 mph

Trending Headlines

Pine Lake Radar Loop



Pine Lake Quick Facts


National Two Day Weather Forecast


E-mail the Pine Lake Weather Forecast

Voice your opinion or tell us about page issues...